| time (UTC) | temp F | wind direction | speed MPH | gust MPH | rain 1hr in | rain 24hr in | rain mn in | humidity % | barometer mb |
| 20260508063109 | 60 | 1.0 | 5.0 | 0.00 | 0.01 | 0.01 | 72 | 1022.6 | |
| 20260508061607 | 61 | 1.0 | 3.0 | 0.00 | 0.01 | 0.01 | 71 | 1022.6 | |
| 20260508060105 | 61 | 1.0 | 4.0 | 0.00 | 0.01 | 0.01 | 72 | 1022.4 | |
| 20260508054555 | 61 | 2.0 | 4.0 | 0.00 | 0.01 | 0.01 | 71 | 1022.4 | |
| 20260508053058 | 61 | 3.0 | 6.0 | 0.00 | 0.01 | 0.01 | 70 | 1022.4 | |
| 20260508051608 | 62 | 2.0 | 5.0 | 0.00 | 0.01 | 0.01 | 71 | 1022.3 | |
| 20260508050051 | 61 | 1.0 | 6.0 | 0.00 | 0.01 | 0.01 | 71 | 1022.4 | |
| 20260508044552 | 61 | 1.0 | 5.0 | 0.00 | 0.02 | 0.01 | 73 | 1022.3 | |
| 20260508043049 | 62 | 1.0 | 6.0 | 0.00 | 0.02 | 0.01 | 71 | 1022.1 | |
| 20260508041548 | 62 | 2.0 | 6.0 | 0.00 | 0.02 | 0.01 | 72 | 1022.2 | |
| 20260508040055 | 62 | 2.0 | 7.0 | 0.00 | 0.02 | 0.01 | 69 | 1022.1 | |
| 20260508034550 | 62 | 3.0 | 10.0 | 0.00 | 0.02 | 0.01 | 69 | 1022.0 | |
| 20260508033047 | 62 | 2.0 | 5.0 | 0.00 | 0.02 | 0.01 | 70 | 1022.1 | |
| 20260508031553 | 62 | 3.0 | 8.0 | 0.00 | 0.02 | 0.01 | 69 | 1022.2 | |
| 20260508030041 | 60 | 2.0 | 7.0 | 0.00 | 0.02 | 0.01 | 73 | 1022.5 | |
| 20260508024603 | 61 | 2.0 | 6.0 | 0.00 | 0.02 | 0.01 | 70 | 1022.5 | |
| 20260508023040 | 61 | 2.0 | 6.0 | 0.00 | 0.02 | 0.01 | 72 | 1022.7 | |
| 20260508021538 | 61 | 1.0 | 6.0 | 0.00 | 0.02 | 0.01 | 72 | 1022.8 | |
| 20260508020046 | 62 | 2.0 | 6.0 | 0.00 | 0.02 | 0.01 | 73 | 1022.9 | |
| 20260508014540 | 62 | 3.0 | 6.0 | 0.00 | 0.02 | 0.01 | 70 | 1023.0 | |
| 20260508013035 | 61 | 2.0 | 7.0 | 0.00 | 0.02 | 0.01 | 74 | 1022.9 | |
| 20260508011532 | 59 | 1.0 | 5.0 | 0.00 | 0.02 | 0.01 | 80 | 1022.8 | |
| 20260508010033 | 59 | 2.0 | 5.0 | 0.01 | 0.02 | 0.01 | 79 | 1022.9 | |
| 20260508004539 | 59 | 1.0 | 6.0 | 0.01 | 0.02 | 0.01 | 82 | 1022.7 | |
| 20260508003021 | 57 | 1.0 | 7.0 | 0.01 | 0.02 | 0.01 | 86 | 1022.8 | |
| 20260508001530 | 56 | 1.0 | 5.0 | 0.01 | 0.02 | 0.01 | 89 | 1022.6 | |
| 20260508000017 | 57 | 3.0 | 6.0 | 0.00 | 0.02 | 0.00 | 87 | 1022.2 | |
| 20260507234516 | 56 | 2.0 | 8.0 | 0.00 | 0.02 | 0.00 | 89 | 1022.2 | |
| 20260507233013 | 56 | 1.0 | 6.0 | 0.00 | 0.02 | 0.00 | 91 | 1022.2 | |
| 20260507231512 | 55 | 1.0 | 5.0 | 0.00 | 0.02 | 0.00 | 92 | 1022.0 | |
| 20260507230008 | 54 | 2.0 | 5.0 | 0.00 | 0.02 | 0.00 | 93 | 1021.7 | |
| 20260507224505 | 53 | 1.0 | 5.0 | 0.00 | 0.02 | 0.00 | 94 | 1021.7 | |
| 20260507223004 | 53 | 1.0 | 4.0 | 0.00 | 0.02 | 0.00 | 95 | 1021.9 | |
| 20260507221502 | 53 | 1.0 | 5.0 | 0.00 | 0.02 | 0.00 | 96 | 1021.7 | |
| 20260507220101 | 52 | 1.0 | 4.0 | 0.00 | 0.02 | 0.00 | 95 | 1021.6 | |
| 20260507214558 | 52 | 1.0 | 5.0 | 0.00 | 0.02 | 0.00 | 95 | 1021.4 | |
| 20260507213056 | 52 | 0.0 | 4.0 | 0.00 | 0.02 | 0.00 | 95 | 1021.1 | |
| 20260507211601 | 52 | 0.0 | 3.0 | 0.00 | 0.02 | 0.00 | 94 | 1021.0 | |
| 20260507210107 | 52 | 1.0 | 3.0 | 0.00 | 0.02 | 0.00 | 94 | 1020.9 | |
| 20260507204551 | 52 | 2.0 | 4.0 | 0.00 | 0.02 | 0.00 | 94 | 1020.6 | |
| 20260507203115 | 52 | 1.0 | 6.0 | 0.00 | 0.02 | 0.00 | 94 | 1020.5 | |
| 20260507201551 | 53 | 1.0 | 7.0 | 0.00 | 0.02 | 0.00 | 94 | 1020.4 | |
| 20260507200047 | 53 | 1.0 | 4.0 | 0.00 | 0.02 | 0.00 | 93 | 1020.4 | |
| 20260507194558 | 53 | 1.0 | 5.0 | 0.00 | 0.02 | 0.00 | 93 | 1020.2 | |
| 20260507193044 | 53 | 2.0 | 6.0 | 0.00 | 0.02 | 0.00 | 93 | 1020.0 | |
| 20260507191546 | 53 | 2.0 | 5.0 | 0.00 | 0.02 | 0.00 | 93 | 1019.9 | |
| 20260507190046 | 53 | 1.0 | 6.0 | 0.00 | 0.02 | 0.00 | 93 | 1019.7 | |
| 20260507184539 | 53 | 1.0 | 9.0 | 0.00 | 0.08 | 0.00 | 92 | 1019.4 | |
| 20260507183038 | 53 | 3.0 | 10.0 | 0.00 | 0.08 | 0.00 | 93 | 1019.3 | |
| 20260507181537 | 53 | 2.0 | 11.0 | 0.00 | 0.08 | 0.00 | 94 | 1019.2 | |
| 20260507180039 | 53 | 2.0 | 7.0 | 0.00 | 0.08 | 0.00 | 93 | 1019.0 | |
| 20260507174542 | 53 | 2.0 | 7.0 | 0.00 | 0.08 | 0.00 | 94 | 1018.9 | |
| 20260507173053 | 53 | 2.0 | 6.0 | 0.00 | 0.08 | 0.00 | 94 | 1018.8 | |
| 20260507171539 | 53 | 3.0 | 10.0 | 0.00 | 0.08 | 0.00 | 94 | 1018.7 | |
| 20260507170037 | 53 | 2.0 | 8.0 | 0.00 | 0.08 | 0.00 | 94 | 1018.4 | |
| 20260507164532 | 53 | 3.0 | 7.0 | 0.00 | 0.08 | 0.00 | 93 | 1018.5 | |
| 20260507163027 | 53 | 4.0 | 10.0 | 0.00 | 0.08 | 0.00 | 93 | 1018.4 | |
| 20260507161525 | 52 | 2.0 | 8.0 | 0.00 | 0.08 | 0.00 | 93 | 1018.6 | |
| 20260507160025 | 52 | 2.0 | 6.0 | 0.00 | 0.08 | 0.00 | 93 | 1018.8 | |
| 20260507154520 | 52 | 2.0 | 8.0 | 0.00 | 0.08 | 0.00 | 93 | 1018.7 | |
| 20260507153018 | 52 | 3.0 | 11.0 | 0.00 | 0.08 | 0.00 | 93 | 1019.0 | |
| 20260507151517 | 52 | 4.0 | 11.0 | 0.00 | 0.08 | 0.00 | 93 | 1019.1 | |
| 20260507150023 | 52 | 3.0 | 7.0 | 0.00 | 0.08 | 0.00 | 94 | 1019.4 | |
| 20260507144512 | 51 | 1.0 | 7.0 | 0.00 | 0.10 | 0.00 | 94 | 1019.6 | |
| 20260507143010 | 51 | 4.0 | 10.0 | 0.00 | 0.10 | 0.00 | 94 | 1019.4 | |
| 20260507141509 | 51 | 3.0 | 13.0 | 0.00 | 0.10 | 0.00 | 93 | 1019.4 | |
| 20260507140007 | 51 | 5.0 | 19.0 | 0.00 | 0.10 | 0.00 | 93 | 1019.2 | |
| 20260507134507 | 51 | 6.0 | 13.0 | 0.00 | 0.11 | 0.10 | 93 | 1019.5 | |
| 20260507133006 | 51 | 6.0 | 16.0 | 0.00 | 0.11 | 0.10 | 92 | 1019.7 | |
| 20260507131505 | 51 | 5.0 | 12.0 | 0.00 | 0.11 | 0.10 | 92 | 1019.8 | |
| 20260507130005 | 51 | 5.0 | 16.0 | 0.00 | 0.11 | 0.10 | 92 | 1020.1 | |
| 20260507124504 | 51 | 4.0 | 12.0 | 0.00 | 0.11 | 0.10 | 91 | 1020.5 | |
| 20260507123006 | 51 | 6.0 | 14.0 | 0.00 | 0.11 | 0.10 | 91 | 1020.5 | |
| 20260507121503 | 50 | 5.0 | 16.0 | 0.00 | 0.11 | 0.10 | 90 | 1020.8 | |
| 20260507120005 | 50 | 4.0 | 9.0 | 0.00 | 0.11 | 0.10 | 90 | 1020.9 | |
| 20260507114503 | 50 | 5.0 | 12.0 | 0.00 | 0.11 | 0.10 | 90 | 1020.8 | |
| 20260507113005 | 50 | 5.0 | 13.0 | 0.00 | 0.11 | 0.10 | 91 | 1020.7 | |
| 20260507111608 | 50 | 4.0 | 12.0 | 0.00 | 0.11 | 0.10 | 90 | 1020.9 | |
| 20260507104604 | 49 | 5.0 | 12.0 | 0.00 | 0.12 | 0.10 | 91 | 1020.7 | |
| 20260507103100 | 49 | 3.0 | 10.0 | 0.00 | 0.12 | 0.10 | 90 | 1020.9 | |
| 20260507101603 | 49 | 3.0 | 9.0 | 0.00 | 0.12 | 0.10 | 90 | 1021.0 | |
| 20260507100058 | 49 | 3.0 | 8.0 | 0.00 | 0.12 | 0.10 | 90 | 1021.2 | |
| 20260507094601 | 49 | 2.0 | 8.0 | 0.00 | 0.13 | 0.10 | 90 | 1021.4 | |
| 20260507093056 | 49 | 2.0 | 8.0 | 0.00 | 0.13 | 0.10 | 90 | 1021.5 | |
| 20260507091556 | 49 | 3.0 | 8.0 | 0.00 | 0.13 | 0.10 | 90 | 1021.4 | |
| 20260507090057 | 50 | 2.0 | 10.0 | 0.00 | 0.13 | 0.10 | 88 | 1021.4 | |
| 20260507084559 | 50 | 1.0 | 5.0 | 0.00 | 0.13 | 0.10 | 87 | 1021.5 | |
| 20260507083054 | 50 | 1.0 | 5.0 | 0.00 | 0.13 | 0.10 | 86 | 1021.2 | |
| 20260507081554 | 51 | 2.0 | 5.0 | 0.00 | 0.13 | 0.10 | 80 | 1021.3 | |
| 20260507080053 | 51 | 1.0 | 6.0 | 0.00 | 0.13 | 0.10 | 78 | 1021.2 | |
| 20260507074554 | 51 | 2.0 | 8.0 | 0.00 | 0.13 | 0.10 | 77 | 1020.9 | |
| 20260507073102 | 52 | 2.0 | 6.0 | 0.00 | 0.13 | 0.10 | 76 | 1021.0 | |
| 20260507071552 | 52 | 1.0 | 7.0 | 0.00 | 0.13 | 0.10 | 77 | 1021.0 | |
| 20260507070057 | 52 | 2.0 | 6.0 | 0.00 | 0.13 | 0.10 | 77 | 1021.0 | |
| 20260507064553 | 52 | 0.0 | 3.0 | 0.00 | 0.13 | 0.10 | 78 | 1021.2 |